STARLINK-35153

Satellite information

Favourite Embed

Satellite Type and Status

PAYLOADIN ORBIT

Key statistics

Satellite STARLINK-35153 at a glance.

Uptime

26

Days in orbit

Revolutions

≈ 15.4

Per day

Orbit

LEO

Low Earth Orbit

Inclination

53.2

Latest

Satellite identification and parameters

Extended collection of information and parameters for STARLINK-35153.

Object identification

Identified? True

Debris? False

Object name: STARLINK-35153

International designator: 2025-210D

Object number (NORAD): 65625

Object ID (CCSDS): 65625

Country: UNITED STATES OF AMERICA (US)

Current information (Y/N): Y

Orbital parameters

Period: 93.214 minutes

Inclination: 53.1593 deg

SMA: 6810.006 km

Apoapsis: 432.747 km

Periapsis: 430.995 km

RAAN: 271.0843 deg

Eccentricy: 0.00012864

Argument of periapsis: 85.6458 deg

Mean anomaly: 57.6508 deg

Mean motion: 15.44832986 rev/day

Mean motion (dot): -0.02018356 rev/day2

B* drag term: -0.047559756 1/REarth

Two-line elements (TLE)

Creation date: Oct. 14, 2025, 2:50 a.m.

Reference frame: TEME

Reference center: EARTH

Epoch: Oct. 13, 2025, 10 p.m. UTC

TLE line 0: 0 STARLINK-35153

TLE line 1: 1 65625U 25210D 25286.91668981 -.02018356 00000-0 -47560-1 0 9995

TLE line 2: 2 65625 53.1593 271.0843 0001286 85.6458 57.6508 15.44832986 5231

Live tracking on map

Real-time ground track for satellite STARLINK-35153.

In-orbit conjunctions

There are no conjunctions computed for STARLINK-35153, at the moment. Check back to stay up to date, as we update our databases every day.

Go to all conjunctions

Associated space launch

A batch of 28 satellites for the Starlink mega-constellation - SpaceX's project for space-based Internet communication system.

STARLINK-35153 was lifted into orbit during the mission ‘Falcon 9 Block 5 | Starlink Group 10-61’, on board a Falcon 9 space rocket.

The launch took place on Sept. 18, 2025, 9:30 a.m. from Space Launch Complex 40.

For more information about the launch, click the button.

Launch to space Falcon 9 Block 5 | Starlink Group 10-61
Falcon 9 Block 5 | Starlink Group 10-61

Agency: SpaceX

Status: Launch Successful

Launch date: Sept. 18, 2025, 9:30 a.m. UTC

Rocket: Falcon 9

Launch pad: Space Launch Complex 40

Location: Cape Canaveral SFS, FL, USA

...

Latest news about this satellite

News about space launch
Live coverage: SpaceX to launch 28 Starlink satellites on Falcon 9 rocket from Cape Canaveral

The Falcon 9 rocket supporting the Starlink 10-61 mission will fly on a north-easterly trajectory upon departing Florida’s Space Coast. SpaceX is targeting liftoff from pad 40 at Cape Canaveral Space Force Station at 5:30 a.m. EDT (0930 UTC).

News about space launch
Launch Roundup: Starlink, NRO, and New Shepard missions scheduled

Another busy week of launches has arrived, with SpaceX dominating the launch manifest with four… The post Launch Roundup: Starlink, NRO, and New Shepard missions scheduled appeared first on NASASpaceFlight.com.


Newsletter sign-up

Weekly statistics, charts and insights to help you stay on top of the space industry.